{"data":{"norad_id":59264,"epoch":"2026-05-24T19:48:41.193792Z","epoch_age_seconds":89794,"freshness":"FRESH","line1":"1 59264U 24050L   26144.82547678  .00006315  00000+0  22517-3 0  9995","line2":"2 59264  53.1590 187.4682 0001230  84.0357 276.0784 15.30198943122204","mean_motion":15.30198943,"eccentricity":0.000123,"inclination_deg":53.159,"raan_deg":187.4682,"arg_perigee_deg":84.0357,"mean_anomaly_deg":276.0784,"bstar":0.00022517,"rev_number":12220,"period_min":94.105410710639,"perigee_km":474.37526273989,"apogee_km":476.06118812534,"semimajor_km":6853.3552254326,"source":"CELESTRAK","updated_at":"2026-05-25T13:38:18.875610Z"}}